Radioactive Concentration measured by Seawater Radiation Monitor near Fukushima Daiichi Nuclear Power Station
Date,Time,Cs137(Bq/L),Cs134(Bq/L),Total β(Bq/L)
2017/10/15,00:00,1.1,ND,ND
2017/10/15,00:10,1.1,ND,ND
2017/10/15,00:20,1.1,ND,ND
2017/10/15,00:30,1.0,0.025,ND
2017/10/15,00:40,0.92,0.052,ND
2017/10/15,00:50,0.92,0.055,ND
2017/10/15,01:00,0.91,0.067,ND
2017/10/15,01:10,0.92,0.064,ND
2017/10/15,01:20,0.94,0.057,ND
2017/10/15,01:30,0.95,0.057,ND
2017/10/15,01:40,0.96,0.060,ND
2017/10/15,01:50,1.1,ND,ND
2017/10/15,02:00,1.1,ND,ND
2017/10/15,02:10,1.1,0.033,ND
2017/10/15,02:20,1.1,0.038,ND
2017/10/15,02:30,1.0,0.044,ND
2017/10/15,02:40,1.1,0.036,ND
2017/10/15,02:50,1.1,0.038,ND
2017/10/15,03:00,1.1,0.036,ND
2017/10/15,03:10,1.1,0.037,ND
2017/10/15,03:20,1.1,0.043,ND
2017/10/15,03:30,1.1,0.045,ND
2017/10/15,03:40,1.1,0.046,ND
2017/10/15,03:50,1.1,0.045,ND
2017/10/15,04:00,1.1,0.047,ND
2017/10/15,04:10,1.2,0.052,ND
2017/10/15,04:20,1.2,0.052,ND
2017/10/15,04:30,1.2,0.050,ND
2017/10/15,04:40,1.2,0.052,ND
2017/10/15,04:50,1.2,0.055,ND
2017/10/15,05:00,1.2,0.047,ND
2017/10/15,05:10,1.2,0.041,ND
2017/10/15,05:20,1.2,0.041,ND
2017/10/15,05:30,1.3,0.034,ND
2017/10/15,05:40,1.2,0.041,ND
2017/10/15,05:50,1.2,0.036,ND
2017/10/15,06:00,1.2,0.036,ND
2017/10/15,06:10,1.2,0.037,ND
2017/10/15,06:20,1.2,0.041,ND
2017/10/15,06:30,1.2,0.050,ND
2017/10/15,06:40,1.2,0.039,ND
2017/10/15,06:50,1.2,0.037,ND
2017/10/15,07:00,1.2,0.051,ND
2017/10/15,07:10,1.1,0.048,ND
2017/10/15,07:20,1.1,0.048,ND
2017/10/15,07:30,1.1,0.049,ND
2017/10/15,07:40,1.1,0.055,ND
2017/10/15,07:50,1.1,0.058,ND
2017/10/15,08:00,1.1,0.059,ND
2017/10/15,08:10,1.1,0.067,ND
2017/10/15,08:20,1.0,0.089,ND
2017/10/15,08:30,1.0,0.083,ND
2017/10/15,08:40,1.0,0.084,ND
2017/10/15,08:50,1.0,0.074,ND
2017/10/15,09:00,1.0,0.069,ND
2017/10/15,09:10,1.1,0.054,ND
2017/10/15,09:20,1.1,0.071,ND
2017/10/15,09:30,1.0,0.066,ND
2017/10/15,09:40,1.0,0.064,ND
2017/10/15,09:50,1.1,0.037,ND
2017/10/15,10:00,1.1,0.042,ND
2017/10/15,10:10,1.1,0.052,ND
2017/10/15,10:20,1.1,0.051,ND
2017/10/15,10:30,1.1,0.045,ND
2017/10/15,10:40,1.1,0.040,ND
2017/10/15,10:50,1.1,0.039,ND
2017/10/15,11:00,1.1,0.049,ND
2017/10/15,11:10,1.1,0.044,ND
2017/10/15,11:20,1.1,0.048,ND
2017/10/15,11:30,1.1,0.066,ND
2017/10/15,11:40,1.1,0.071,ND
2017/10/15,11:50,1.1,0.071,ND
2017/10/15,12:00,1.1,0.068,ND
2017/10/15,12:10,1.1,0.063,ND
2017/10/15,12:20,1.0,0.096,ND
2017/10/15,12:30,1.1,0.087,ND
2017/10/15,12:40,1.1,0.087,ND
2017/10/15,12:50,1.1,0.087,ND
2017/10/15,13:00,1.2,0.047,ND
2017/10/15,13:10,1.2,0.050,ND
2017/10/15,13:20,1.2,0.049,ND
2017/10/15,13:30,1.2,0.052,ND
2017/10/15,13:40,1.2,0.058,ND
2017/10/15,13:50,1.2,0.058,ND
2017/10/15,14:00,1.2,0.058,ND
2017/10/15,14:10,1.2,0.065,ND
2017/10/15,14:20,1.2,0.070,ND
2017/10/15,14:30,1.2,0.071,ND
2017/10/15,14:40,1.2,0.064,ND
2017/10/15,14:50,1.2,0.075,ND
2017/10/15,15:00,1.2,0.076,ND
2017/10/15,15:10,1.2,0.081,ND
2017/10/15,15:20,1.2,0.082,ND
2017/10/15,15:30,1.2,0.076,ND
2017/10/15,15:40,1.2,0.076,ND
2017/10/15,15:50,1.2,0.075,ND
2017/10/15,16:00,1.2,0.072,ND
2017/10/15,16:10,1.2,0.056,ND
2017/10/15,16:20,1.2,0.054,ND
2017/10/15,16:30,1.2,0.059,ND
2017/10/15,16:40,1.3,0.059,ND
2017/10/15,16:50,1.2,0.065,ND
2017/10/15,17:00,1.1,0.097,ND
2017/10/15,17:10,1.2,0.099,ND
2017/10/15,17:20,1.2,0.10,ND
2017/10/15,17:30,1.2,0.092,ND
2017/10/15,17:40,1.2,0.11,ND
2017/10/15,17:50,1.2,0.093,ND
2017/10/15,18:00,1.2,0.098,ND
2017/10/15,18:10,1.2,0.11,ND
2017/10/15,18:20,1.3,0.070,ND
2017/10/15,18:30,1.2,0.11,ND
2017/10/15,18:40,1.3,0.065,ND
2017/10/15,18:50,1.2,0.095,ND
2017/10/15,19:00,1.1,0.098,ND
2017/10/15,19:10,1.1,0.088,ND
2017/10/15,19:20,1.0,0.091,ND
2017/10/15,19:30,0.99,0.093,ND
2017/10/15,19:40,1.0,0.084,ND
2017/10/15,19:50,1.1,0.039,ND
2017/10/15,20:00,1.1,0.030,ND
2017/10/15,20:10,1.1,0.026,ND
2017/10/15,20:20,1.2,ND,ND
2017/10/15,20:30,1.2,ND,ND
2017/10/15,20:40,1.1,0.025,ND
2017/10/15,20:50,1.1,0.032,ND
2017/10/15,21:00,0.96,0.066,ND
2017/10/15,21:10,1.0,0.044,ND
2017/10/15,21:20,1.0,0.036,ND
2017/10/15,21:30,1.0,0.041,ND
2017/10/15,21:40,0.92,0.068,ND
2017/10/15,21:50,0.95,0.063,ND
2017/10/15,22:00,0.93,0.068,ND
2017/10/15,22:10,0.96,0.064,ND
2017/10/15,22:20,0.96,0.065,ND
2017/10/15,22:30,1.1,0.030,ND
2017/10/15,22:40,1.1,0.029,ND
2017/10/15,22:50,1.0,0.028,ND
2017/10/15,23:00,0.92,0.055,ND
2017/10/15,23:10,0.91,0.050,ND
2017/10/15,23:20,0.89,0.055,ND
2017/10/15,23:30,0.92,0.043,ND
2017/10/15,23:40,0.94,0.045,ND
2017/10/15,23:50,0.94,0.046,ND
